Ortonville, MN

9:25 PM CDT on June 24, 2018 (GMT -0500)
Ortonville Municipal-Martinson

Weather History for KVVV - August, 2017

Change the Weather History Date:

Thursday, August 17, 2017

  Actual Average (KAQP) Record (KAQP)
Temperature  
Mean Temperature 68 °F -  
Max Temperature 77 °F 77 °F 96 °F (2003)
Min Temperature 60 °F 55 °F 42 °F (2012)
Cooling Degree Days 4    
Growing Degree Days 18 (Base 50)    
Moisture  
Dew Point 60 °F    
Average Humidity 81    
Maximum Humidity 94    
Minimum Humidity 53    
Precipitation  
Precipitation 0.00 in - - ()
Sea Level Pressure  
Sea Level Pressure 29.81 in    
Wind  
Wind Speed - (North)    
Max Wind Speed -    
Max Gust Speed -    
Visibility 9 miles    
Events Rain    
Averages and records for this station are not official NWS values.
T = Trace of Precipitation, MM = Missing Value Source: NWS Daily Summary

Daily Weather History Graph

Daily Weather History Graph

Search for Another Location

Airport or City:

Astronomy

Aug. 17, 2017 Rise Set
Actual Time 6:29 AM CDT 8:28 PM CDT
Civil Twilight 5:57 AM CDT 9:00 PM CDT
Nautical Twilight 5:18 AM CDT 9:39 PM CDT
Astronomical Twilight 4:35 AM CDT 10:22 PM CDT
Moon 1:59 AM CDT (8/17) 5:16 PM CDT (8/17)
Length of Visible Light 15h 03m
Length of Day
13h 59m
Waning Crescent, 21% of the Moon is Illuminated
Aug 17
Waning Crescent
Aug 21
New
Aug 29
First Quarter
Sep 6
Full
Sep 13
Last Quarter

Hourly Weather History & Observations

Time (CDT) Temp. Dew Point Humidity Pressure Visibility Wind Dir Wind Speed Gust Speed Precip Events Conditions
12:13 AM 64.4 °F 62.6 °F 94% 29.71 in 5.0 mi North - - N/A Rain Rain
12:34 AM 64.4 °F 62.6 °F 94% 29.71 in 10.0 mi North - - N/A Rain Light Rain
12:54 AM 64.4 °F 62.6 °F 94% 29.71 in 10.0 mi North - - N/A Rain Light Rain
1:13 AM 64.4 °F 62.6 °F 94% 29.71 in 10.0 mi North - - N/A   Light Drizzle
1:34 AM 64.4 °F 62.6 °F 94% 29.72 in 10.0 mi North - - N/A Rain Light Rain
1:54 AM 64.4 °F 62.6 °F 94% 29.71 in 3.0 mi North - - N/A Rain Light Rain
2:14 AM 64.4 °F 62.6 °F 94% 29.71 in 4.0 mi North - - N/A Rain Rain
2:34 AM 64.4 °F 62.6 °F 94% 29.71 in 3.0 mi North - - N/A   Drizzle
2:53 AM 64.4 °F 62.6 °F 94% 29.71 in 10.0 mi North - - N/A   Light Drizzle
3:14 AM 64.4 °F 62.6 °F 94% 29.71 in 2.5 mi North - - N/A   Overcast
3:34 AM 64.4 °F 62.6 °F 94% 29.71 in 4.0 mi North - - N/A   Overcast
3:53 AM 64.4 °F 62.6 °F 94% 29.71 in 4.0 mi North - - N/A   Overcast
4:14 AM 64.4 °F 62.6 °F 94% 29.71 in 4.0 mi North - - N/A   Overcast
4:34 AM 62.6 °F 60.8 °F 94% 29.71 in 5.0 mi North - - N/A   Overcast
4:53 AM 64.4 °F 62.6 °F 94% 29.72 in 7.0 mi North - - N/A   Overcast
5:14 AM 62.6 °F 60.8 °F 94% 29.72 in 10.0 mi North - - N/A   Overcast
5:34 AM 62.6 °F 60.8 °F 94% 29.73 in 10.0 mi North - - N/A   Overcast
5:53 AM 62.6 °F 60.8 °F 94% 29.73 in 10.0 mi North - - N/A   Overcast
6:14 AM 62.6 °F 60.8 °F 94% 29.74 in 10.0 mi North - - N/A   Overcast
6:34 AM 60.8 °F 59.0 °F 94% 29.75 in 10.0 mi North - - N/A   Overcast
6:53 AM 60.8 °F 59.0 °F 94% 29.76 in 10.0 mi North - - N/A   Overcast
7:14 AM 60.8 °F 59.0 °F 94% 29.77 in 10.0 mi North - - N/A   Overcast
7:34 AM 60.8 °F 59.0 °F 94% 29.77 in 10.0 mi North - - N/A   Overcast
7:53 AM 62.6 °F 59.0 °F 88% 29.78 in 10.0 mi North - - N/A   Overcast
8:14 AM 62.6 °F 59.0 °F 88% 29.79 in 10.0 mi North - - N/A   Overcast
8:34 AM 62.6 °F 59.0 °F 88% 29.79 in 7.0 mi North - - N/A   Overcast
8:53 AM 62.6 °F 59.0 °F 88% 29.80 in 10.0 mi North - - N/A   Overcast
9:14 AM 62.6 °F 59.0 °F 88% 29.80 in 10.0 mi North - - N/A   Overcast
9:33 AM 62.6 °F 59.0 °F 88% 29.82 in 10.0 mi North - - N/A   Overcast
9:54 AM 62.6 °F 59.0 °F 88% 29.82 in 10.0 mi North - - N/A   Overcast
10:14 AM 62.6 °F 59.0 °F 88% 29.83 in 10.0 mi North - - N/A   Overcast
10:33 AM 64.4 °F 59.0 °F 83% 29.83 in 10.0 mi North - - N/A   Overcast
10:54 AM 64.4 °F 60.8 °F 88% 29.84 in 10.0 mi North - - N/A   Overcast
11:14 AM 64.4 °F 60.8 °F 88% 29.84 in 10.0 mi North - - N/A   Overcast
11:33 AM 64.4 °F 60.8 °F 88% 29.84 in 10.0 mi North - - N/A   Overcast
11:54 AM 66.2 °F 60.8 °F 83% 29.84 in 10.0 mi North - - N/A   Overcast
12:14 PM 66.2 °F 60.8 °F 83% 29.84 in 10.0 mi North - - N/A   Mostly Cloudy
12:33 PM 69.8 °F 60.8 °F 73% 29.84 in 10.0 mi North - - N/A   Scattered Clouds
12:54 PM 69.8 °F 60.8 °F 73% 29.85 in 10.0 mi North - - N/A   Scattered Clouds
1:14 PM 71.6 °F 62.6 °F 73% 29.85 in 10.0 mi North - - N/A   Mostly Cloudy
1:33 PM 71.6 °F 62.6 °F 73% 29.85 in 10.0 mi North - - N/A   Scattered Clouds
1:54 PM 71.6 °F 62.6 °F 73% 29.85 in 10.0 mi North - - N/A   Clear
2:13 PM 73.4 °F 62.6 °F 69% 29.85 in 10.0 mi North - - N/A   Clear
2:34 PM 73.4 °F 60.8 °F 65% 29.85 in 10.0 mi North - - N/A   Clear
2:54 PM 75.2 °F 60.8 °F 61% 29.85 in 10.0 mi North - - N/A   Clear
3:13 PM 75.2 °F 60.8 °F 61% 29.85 in 10.0 mi North - - N/A   Clear
3:34 PM 75.2 °F 59.0 °F 57% 29.86 in 10.0 mi North - - N/A   Clear
3:54 PM 75.2 °F 57.2 °F 53% 29.85 in 10.0 mi North - - N/A   Clear
4:13 PM 75.2 °F 57.2 °F 53% 29.85 in 10.0 mi North - - N/A   Clear
4:34 PM 77.0 °F 59.0 °F 54% 29.86 in 10.0 mi North - - N/A   Clear
4:54 PM 75.2 °F 57.2 °F 53% 29.86 in 10.0 mi North - - N/A   Clear
5:13 PM 75.2 °F 57.2 °F 53% 29.85 in 10.0 mi North - - N/A   Clear
5:34 PM 75.2 °F 57.2 °F 53% 29.86 in 10.0 mi North - - N/A   Clear
5:54 PM 75.2 °F 59.0 °F 57% 29.86 in 10.0 mi North - - N/A   Clear
6:13 PM 75.2 °F 59.0 °F 57% 29.86 in 10.0 mi North - - N/A   Clear
6:34 PM 75.2 °F 57.2 °F 53% 29.86 in 10.0 mi North - - N/A   Clear
6:54 PM 73.4 °F 60.8 °F 65% 29.86 in 10.0 mi North - - N/A   Clear
7:13 PM 73.4 °F 59.0 °F 61% 29.86 in 10.0 mi North - - N/A   Clear
7:34 PM 71.6 °F 60.8 °F 69% 29.86 in 10.0 mi North - - N/A   Clear
7:54 PM 71.6 °F 60.8 °F 69% 29.86 in 10.0 mi North - - N/A   Clear
8:13 PM 69.8 °F 60.8 °F 73% 29.86 in 10.0 mi North - - N/A   Clear
8:34 PM 69.8 °F 60.8 °F 73% 29.86 in 10.0 mi North - - N/A   Clear
8:53 PM 66.2 °F 60.8 °F 83% 29.87 in 10.0 mi North - - N/A   Clear
9:14 PM 64.4 °F 60.8 °F 88% 29.88 in 10.0 mi North - - N/A   Clear
9:34 PM 64.4 °F 60.8 °F 88% 29.88 in 10.0 mi North - - N/A   Clear
9:53 PM 64.4 °F 60.8 °F 88% 29.88 in 10.0 mi North - - N/A   Clear
10:14 PM 64.4 °F 59.0 °F 83% 29.88 in 10.0 mi North - - N/A   Clear
10:34 PM 62.6 °F 59.0 °F 88% 29.89 in 10.0 mi North - - N/A   Clear
10:53 PM 62.6 °F 59.0 °F 88% 29.88 in 10.0 mi North - - N/A   Clear
11:14 PM 62.6 °F 57.2 °F 82% 29.89 in 10.0 mi North - - N/A   Clear
11:34 PM 62.6 °F 60.8 °F 94% 29.89 in 10.0 mi North - - N/A   Clear
11:53 PM 64.4 °F 60.8 °F 88% 29.89 in 10.0 mi North - - N/A   Clear